[[{"header":{"parameterUnit":"m.s-1","parameterCategory":1,"la1":30.2991,"la2":30.254,"lo1":-89.0895,"lo2":-89.0444,"dy":0.0017,"dx":0.0017,"nx":28,"ny":28,"refTime":"2023-08-28T03:00:00:Z","depth":0,"parameterNumber":2,"parameterNumberName":"U-component_of_WINDS"},"data":[0,0,0,0,0,0,0,0,0,0,0,0,0,0,0,0,0,0,0,0,0,0,0,0,0,0,0,0,0,0,0,0,0,0,0,0,0,0,0,0,0,0,0,0,0,0,0,0,0,0,0,0,0,0,0,0,0,0,0.3045,0.3044,0,0.3001,0.3001,0.3,0.3025,0.3026,0.3028,0.3029,0.2979,0.2977,0.2974,0,0,0,0,0,0,0,0,0,0,0,0,0,0.3145,0.3143,0.3045,0.3044,0.3044,0.3001,0.3001,0.3,0.3025,0.3026,0.3028,0.3029,0.298,0.2977,0.2974,0,0,0,0,0,0,0,0,0,0,0,0,0,0.3101,0.3142,0.3045,0.3051,0.3051,0.3001,0.3001,0.3,0.3025,0.3026,0.3028,0.303,0.2981,0.2977,0.2974,0.2914,0,0,0.2962,0.2961,0,0,0,0,0,0,0,0,0.3104,0.3097,0.3051,0.3051,0.3051,0.3021,0.3018,0.2971,0.3024,0.3035,0.3029,0.3031,0.2991,0.2987,0.2974,0.2912,0.2909,0.2962,0.296,0.2958,0.2957,0,0,0,0,0,0,0,0.3107,0.3099,0.3027,0.305,0.305,0.3055,0.305,0.3009,0.3003,0.3034,0.3036,0.303,0.2991,0.2978,0.2973,0.2909,0.2962,0.2959,0.2957,0.2955,0.2795,0.2793,0,0,0,0,0,0,0.311,0.3102,0.3029,0.3026,0.3082,0.3051,0.3047,0.3028,0.3003,0.3001,0.3029,0.3032,0.2983,0.2978,0.2972,0.2899,0.2958,0.2955,0.2953,0.2797,0.2794,0.2792,0,0,0,0,0,0,0.3112,0.3103,0.3031,0.3064,0.3056,0.3048,0.3027,0.3026,0.3013,0.3,0.2998,0.3016,0.2985,0.2977,0.2928,0.2898,0.2953,0.295,0.2799,0.2796,0.2793,0.2755,0,0,0,0,0,0,0.3115,0.3104,0.3082,0.3064,0.3054,0.2989,0.3025,0.3024,0.3007,0.301,0.2988,0.2985,0.2985,0.2934,0.2925,0.2894,0.2947,0.2802,0.2798,0.2794,0.2758,0.2751,0.2744,0,0,0,0,0,0.3118,0.3071,0.308,0.3071,0.3026,0.2987,0.2981,0.2983,0.3005,0.2982,0.2973,0.2986,0.2904,0.2929,0.2919,0.2886,0.2803,0.2799,0.2794,0.2762,0.2752,0.2744,0,0,0,0,0,0,0.3083,0.3069,0.3079,0.3025,0.3008,0.2991,0.2962,0.2973,0.2947,0.2951,0.2954,0.2949,0.2898,0.2888,0.2916,0.2827,0.2857,0.285,0.2835,0.2826,0.2819,0.2821,0.2944,0,0,0,0,0,0.307,0.3041,0.303,0.2983,0.2974,0.297,0.2953,0.2957,0.2937,0.2929,0.2917,0.2897,0.2867,0.2846,0.2817,0.2758,0.2753,0.2731,0.2724,0.2718,0.2711,0.2678,0.2668,0.2777,0.2777,0.2777,0,0,0.3041,0.303,0.3011,0.2976,0.2963,0.2931,0.2963,0.2928,0.2904,0.2924,0.2877,0.2868,0.2845,0.2791,0.2767,0.2781,0.268,0.2712,0.2707,0.2704,0.2673,0.2662,0.2653,0.2774,0.2774,0.2775,0,0,0.2972,0.2961,0.2921,0.2908,0.2888,0.2886,0.2877,0.2859,0.2854,0.2808,0.2822,0.2793,0.2741,0.2724,0.2709,0.2635,0.2646,0.2626,0.2587,0.2555,0.2546,0.2539,0.2511,0.2501,0.262,0.262,0.262,0,0.2937,0.2892,0.2899,0.2863,0.2847,0.2866,0.2825,0.2811,0.2782,0.277,0.2787,0.2722,0.2708,0.265,0.2632,0.262,0.2608,0.2627,0.2547,0.254,0.2533,0.2506,0.2496,0.2617,0.2618,0.2618,0.2618,0,0.285,0.2819,0.2789,0.2762,0.2743,0.2705,0.2705,0.2684,0.269,0.2686,0.2639,0.2623,0.2592,0.2579,0.2583,0.2521,0.2531,0.2548,0.2577,0.252,0.2495,0.2485,0.2614,0.2615,0.2615,0.2616,0,0,0.2755,0.2735,0.2724,0.2712,0.2693,0.2667,0.263,0.2601,0.2583,0.2563,0.253,0.2487,0.2503,0.2485,0.2489,0.2461,0.2403,0.2481,0.2481,0.2466,0.2332,0.2318,0.2306,0.2411,0.2409,0.2407,0.2333,0,0.2683,0.262,0.2626,0.2564,0.2535,0.2553,0.252,0.2504,0.25,0.2473,0.2467,0.2436,0.246,0.2449,0.2423,0.2415,0.2375,0.2421,0.2378,0.2377,0.2381,0.2293,0.2278,0.2209,0.2324,0.2322,0.2321,0,0.259,0.2569,0.2506,0.2492,0.2479,0.245,0.2424,0.2399,0.2381,0.2379,0.2361,0.2369,0.2331,0.2363,0.2309,0.234,0.2323,0.2317,0.2314,0.2308,0.2344,0.2283,0.2187,0.2176,0.2306,0.2307,0.2308,0,0.2525,0.2481,0.2437,0.2427,0.241,0.2389,0.238,0.2364,0.2347,0.2324,0.2312,0.2285,0.2269,0.2247,0.2247,0.2271,0.2192,0.2225,0.2188,0.2188,0.2168,0.2169,0.2066,0.2161,0.2162,0.2162,0.2162,0,0.2443,0.2403,0.2408,0.2381,0.2336,0.2344,0.2299,0.2293,0.2279,0.225,0.2264,0.2236,0.224,0.2211,0.2211,0.2166,0.2159,0.2155,0.2155,0.2153,0.2153,0.214,0.2144,0.2159,0.216,0.216,0.2161,0,0.2361,0.2364,0.2317,0.2306,0.2302,0.2269,0.2259,0.2232,0.2231,0.2194,0.2185,0.2181,0.2149,0.2148,0.211,0.211,0.2054,0.2061,0.206,0.2061,0.2024,0.2027,0.1907,0.1891,0.1999,0.1998,0.1997,0,0.2308,0.2278,0.2264,0.2247,0.2237,0.2209,0.2192,0.2198,0.218,0.2158,0.2134,0.2103,0.2079,0.2026,0.2019,0.199,0.1994,0.1955,0.199,0.1988,0.1992,0.1993,0.1989,0.1947,0.1946,0.1945,0.1944,0,0.2211,0.2215,0.219,0.2167,0.2146,0.2127,0.211,0.2094,0.2099,0.2077,0.2045,0.2027,0.1989,0.1958,0.1931,0.1921,0.1932,0.1934,0.1923,0.1919,0.1919,0.1917,0.2039,0.1935,0.1936,0.1937,0.1937,0.1938,0.2141,0.2115,0.2102,0.2074,0.2063,0.2046,0.2021,0.2017,0.1991,0.1963,0.1968,0.1932,0.1915,0.188,0.1868,0.1839,0.1852,0.1838,0.1834,0.1829,0.1825,0.1926,0.1834,0.1834,0.1835,0.1835,0.1835,0,0.2044,0.2037,0.2012,0.1988,0.1967,0.1983,0.1965,0.1945,0.1914,0.1898,0.1875,0.1838,0.1808,0.18,0.1771,0.175,0.1754,0.1741,0.1742,0.1739,0.1815,0.1826,0.1738,0.1738,0.1738,0.1738,0.1738,0.1738,0.199,0.1948,0.1949,0.1901,0.1894,0.186,0.1848,0.1833,0.1821,0.178,0.1756,0.1752,0.1739,0.171,0.1683,0.1681,0.1669,0.1654,0.1654,0.1724,0.1734,0.1743,0.1753,0.1651,0.1651,0.158,0.1579,0.1579]},{"header":{"parameterUnit":"m.s-1","parameterCategory":1,"la1":30.2991,"la2":30.254,"lo1":-89.0895,"lo2":-89.0444,"dy":0.0017,"dx":0.0017,"nx":28,"ny":28,"refTime":"2023-08-28T03:00:00:Z","depth":0,"parameterNumber":3,"parameterNumberName":"V-component_of_WINDS"},"data":[0,0,0,0,0,0,0,0,0,0,0,0,0,0,0,0,0,0,0,0,0,0,0,0,0,0,0,0,0,0,0,0,0,0,0,0,0,0,0,0,0,0,0,0,0,0,0,0,0,0,0,0,0,0,0,0,0,0,0.4755,0.4756,0,0.4851,0.4852,0.4853,0.488,0.488,0.4879,0.4879,0.4976,0.4979,0.4982,0,0,0,0,0,0,0,0,0,0,0,0,0,0.4593,0.4596,0.4755,0.4756,0.4757,0.4851,0.4852,0.4854,0.4881,0.488,0.4879,0.4879,0.4975,0.4978,0.4982,0,0,0,0,0,0,0,0,0,0,0,0,0,0.4674,0.4597,0.4755,0.4782,0.4785,0.4851,0.4852,0.4854,0.4881,0.488,0.4879,0.4878,0.4973,0.4978,0.4982,0.5027,0,0,0.4996,0.4998,0,0,0,0,0,0,0,0,0.4669,0.468,0.4777,0.478,0.4784,0.4853,0.4831,0.4912,0.4881,0.4844,0.4879,0.4878,0.4935,0.4943,0.4963,0.5031,0.5035,0.4997,0.5,0.5002,0.5003,0,0,0,0,0,0,0,0.4663,0.4676,0.4793,0.4778,0.4783,0.4789,0.48,0.4846,0.4893,0.4848,0.485,0.4861,0.4937,0.4958,0.4965,0.5037,0.4997,0.5001,0.5004,0.5005,0.5149,0.515,0,0,0,0,0,0,0.4653,0.4671,0.479,0.4796,0.4724,0.4793,0.4805,0.4832,0.4893,0.4901,0.4861,0.4862,0.4951,0.496,0.4969,0.5026,0.5002,0.5006,0.5009,0.5148,0.5149,0.515,0,0,0,0,0,0,0.465,0.4664,0.4786,0.4734,0.475,0.4796,0.4827,0.4834,0.4855,0.4903,0.4912,0.4875,0.4951,0.4962,0.5013,0.503,0.5008,0.5012,0.5146,0.5148,0.515,0.5141,0,0,0,0,0,0,0.4645,0.4662,0.468,0.4734,0.4753,0.4829,0.4828,0.4836,0.4863,0.4865,0.4918,0.4926,0.4951,0.5006,0.5017,0.5036,0.5016,0.5145,0.5147,0.5149,0.514,0.5142,0.5144,0,0,0,0,0,0.4639,0.4673,0.4681,0.4695,0.4776,0.4829,0.484,0.4869,0.4865,0.4883,0.4914,0.4924,0.5026,0.5011,0.5024,0.5044,0.5144,0.5147,0.5149,0.5139,0.5142,0.5144,0,0,0,0,0,0,0.4618,0.468,0.469,0.4742,0.478,0.4834,0.4858,0.487,0.491,0.491,0.4943,0.4955,0.5003,0.5029,0.501,0.5091,0.5085,0.509,0.5073,0.5076,0.5078,0.5071,0.502,0,0,0,0,0,0.4619,0.4658,0.471,0.4751,0.477,0.4811,0.4835,0.4854,0.4895,0.4911,0.4946,0.4985,0.5026,0.5052,0.5092,0.5143,0.5156,0.5164,0.5166,0.5167,0.5172,0.5202,0.5207,0.5158,0.5158,0.5158,0,0,0.4622,0.4661,0.4684,0.4748,0.478,0.482,0.4824,0.4865,0.4895,0.4917,0.4968,0.4995,0.504,0.5092,0.5116,0.5114,0.5188,0.517,0.5171,0.5175,0.5205,0.521,0.5214,0.5159,0.5159,0.5159,0,0,0.4649,0.4682,0.4721,0.4753,0.4802,0.4829,0.4838,0.4891,0.491,0.4961,0.4979,0.5015,0.5084,0.5117,0.5142,0.5183,0.5194,0.5195,0.5205,0.5235,0.5239,0.5242,0.5258,0.5263,0.5199,0.5199,0.5199,0,0.4647,0.4708,0.4739,0.478,0.4808,0.4831,0.4871,0.4901,0.496,0.4979,0.4976,0.5065,0.5097,0.5158,0.5168,0.5187,0.5199,0.5189,0.5236,0.524,0.5244,0.5259,0.5265,0.5199,0.5199,0.5199,0.5199,0,0.4704,0.4746,0.4771,0.4829,0.486,0.49,0.4937,0.4965,0.4981,0.5008,0.5061,0.5101,0.515,0.5166,0.5181,0.5229,0.5227,0.5229,0.5224,0.5248,0.5263,0.5269,0.5198,0.5198,0.5199,0.5199,0,0,0.4719,0.4795,0.4804,0.4832,0.4888,0.4921,0.4963,0.5012,0.5036,0.5076,0.5112,0.5171,0.5175,0.5204,0.5224,0.5249,0.5281,0.5249,0.5251,0.5255,0.5337,0.5336,0.5342,0.5289,0.529,0.5291,0.5334,0,0.4754,0.483,0.486,0.4922,0.4962,0.4985,0.5021,0.5059,0.5086,0.5124,0.5153,0.5195,0.5196,0.5214,0.524,0.5272,0.5298,0.5269,0.5323,0.5325,0.5313,0.535,0.5348,0.5387,0.534,0.5341,0.5342,0,0.4805,0.4847,0.4914,0.4967,0.4985,0.5017,0.5066,0.5102,0.5146,0.5164,0.5197,0.5215,0.526,0.5252,0.5314,0.5293,0.5317,0.5336,0.5339,0.5346,0.5336,0.536,0.54,0.5406,0.5351,0.535,0.535,0,0.4812,0.4885,0.4935,0.4958,0.5021,0.5043,0.507,0.5114,0.5142,0.5185,0.5204,0.525,0.5276,0.5311,0.5342,0.5332,0.5402,0.5396,0.5419,0.5418,0.5433,0.5432,0.548,0.5446,0.5446,0.5446,0.5446,0,0.4848,0.4888,0.494,0.497,0.5016,0.505,0.5094,0.5122,0.5161,0.5198,0.522,0.5254,0.5292,0.5331,0.5355,0.5404,0.5415,0.5431,0.5437,0.543,0.5428,0.5447,0.5445,0.5447,0.5447,0.5447,0.5447,0,0.4864,0.49,0.4956,0.5011,0.5026,0.5058,0.5105,0.5136,0.5164,0.5211,0.5223,0.5267,0.5314,0.5348,0.5408,0.5425,0.5478,0.5483,0.5463,0.5467,0.5489,0.5487,0.5551,0.5562,0.5519,0.552,0.552,0,0.4886,0.4918,0.4977,0.5004,0.5032,0.5074,0.5104,0.5138,0.5168,0.5222,0.5246,0.5295,0.5336,0.541,0.5447,0.5494,0.5502,0.5521,0.5509,0.5501,0.5504,0.5502,0.5506,0.5523,0.5523,0.5523,0.5524,0,0.4921,0.4938,0.498,0.503,0.5065,0.5105,0.5145,0.5165,0.5207,0.5239,0.5288,0.532,0.5383,0.5432,0.5482,0.551,0.5524,0.5527,0.5535,0.5529,0.5517,0.5526,0.547,0.5526,0.5526,0.5525,0.5525,0.5525,0.4942,0.4972,0.5019,0.5066,0.5101,0.5138,0.5171,0.5203,0.5245,0.53,0.5317,0.5368,0.5413,0.5482,0.5511,0.5551,0.5551,0.5562,0.5565,0.5568,0.5568,0.5509,0.556,0.556,0.556,0.556,0.556,0,0.498,0.5012,0.5055,0.5112,0.5149,0.516,0.5205,0.5235,0.5281,0.5321,0.5362,0.5419,0.5467,0.5508,0.5557,0.5582,0.559,0.5594,0.5593,0.56,0.5565,0.5554,0.5587,0.5587,0.5587,0.5587,0.5587,0.5587,0.5005,0.5057,0.5079,0.5148,0.518,0.5231,0.5257,0.5292,0.5325,0.5388,0.5428,0.5455,0.5496,0.5549,0.5594,0.5604,0.5622,0.5625,0.5638,0.5605,0.5602,0.5599,0.5589,0.5628,0.5628,0.5669,0.5669,0.567]}]]